N1OF Weather Reports


time (UTC)temp
F
wind
direction
speed
knots
gust
knots
rain 1hr
in
rain 24hr
in
rain mn
in
humidity
%
barometer
mb
20260508175220 53 251 1.7 5.2 0.07 0.05 0.05 88 1012.7
20260508174718 53 289 2.6 3.5 0.14 0.05 0.05 86 1012.4
20260508174215 53 150 3.5 5.2 0.07 0.04 0.04 85 1012.3
20260508173711 54 270 5.2 7.0 0.00 0.03 0.03 83 1012.5
20260508173207 55 173 5.2 7.8 0.00 0.03 0.03 82 1011.9
20260508172704 56 233 1.7 5.2 0.00 0.03 0.03 80 1012.0
20260508172201 56 300 5.2 7.0 0.00 0.03 0.03 79 1012.1
20260508171657 56 210 3.5 3.5 0.00 0.03 0.03 80 1012.2
20260508171154 56 281 4.3 5.2 0.00 0.03 0.03 79 1012.5
20260508170651 55 202 1.7 7.0 0.00 0.03 0.03 81 1012.5
20260508170149 55 294 1.7 2.6 0.00 0.03 0.03 82 1012.8
20260508165645 54 247 2.6 7.0 0.00 0.03 0.03 81 1012.8
20260508165142 54 123 0.9 5.2 0.00 0.03 0.03 82 1013.0
20260508164639 54 234 1.7 5.2 0.00 0.03 0.03 82 1012.8
20260508164136 54 198 2.6 5.2 0.00 0.03 0.03 82 1012.8
20260508163633 53 226 0.9 3.5 0.00 0.03 0.03 83 1012.7
20260508163130 53 191 0.9 3.5 0.00 0.03 0.03 83 1013.1
20260508162626 53 191 1.7 3.5 0.00 0.03 0.03 82 1013.3
20260508162123 53 275 1.7 2.6 0.00 0.03 0.03 82 1013.7
20260508161620 53 188 4.3 7.0 0.00 0.03 0.03 80 1013.7
20260508161112 53 257 3.5 6.1 0.00 0.03 0.03 80 1013.4
20260508160611 53 265 2.6 2.6 0.00 0.03 0.03 80 1013.5
20260508160107 54 307 5.2 6.1 0.00 0.03 0.03 78 1013.8
20260508155604 54 243 0.9 2.6 0.00 0.03 0.03 77 1013.4
20260508155101 54 338 0.0 5.2 0.00 0.03 0.03 76 1013.5
20260508154558 54 227 1.7 2.6 0.00 0.03 0.03 74 1013.6
20260508154055 54 266 2.6 6.1 0.00 0.03 0.03 72 1013.4
20260508153552 54 217 3.5 6.1 0.00 0.03 0.03 71 1013.5
20260508153048 55 269 0.9 1.7 0.00 0.03 0.03 71 1013.5
20260508152546 55 309 3.5 6.1 0.00 0.03 0.03 71 1013.4
20260508152041 54 268 0.9 2.6 0.00 0.03 0.03 71 1013.4
20260508151538 54 272 4.3 5.2 0.00 0.03 0.03 71 1013.4
20260508151034 54 232 1.7 3.5 0.00 0.03 0.03 71 1013.2
20260508150532 54 266 2.6 3.5 0.00 0.03 0.03 71 1013.2
20260508150027 55 18 0.0 2.6 0.00 0.03 0.03 71 1013.2
20260508145524 55 270 1.7 5.2 0.00 0.03 0.03 71 1013.4
20260508145020 55 301 1.7 5.2 0.00 0.03 0.03 71 1013.4
20260508144518 55 222 1.7 3.5 0.00 0.03 0.03 71 1013.4
20260508144015 54 323 2.6 5.2 0.00 0.03 0.03 70 1013.4
20260508143513 54 282 1.7 5.2 0.00 0.03 0.03 70 1013.2
20260508143009 54 292 3.5 3.5 0.00 0.03 0.03 69 1013.4
20260508142507 54 308 2.6 3.5 0.00 0.03 0.03 71 1013.3
20260508142003 54 322 1.7 7.0 0.00 0.03 0.03 70 1013.4
20260508141459 54 310 1.7 5.2 0.00 0.03 0.03 70 1013.2
20260508140957 54 180 2.6 8.7 0.00 0.03 0.03 69 1013.3
20260508140454 54 148 1.7 3.5 0.00 0.03 0.03 69 1013.5
20260508135949 55 287 1.7 3.5 0.00 0.03 0.03 69 1013.4
20260508135446 55 2 2.6 5.2 0.00 0.03 0.03 69 1013.3
20260508134943 55 155 0.9 3.5 0.00 0.03 0.03 69 1013.2
20260508134439 54 289 0.9 1.7 0.00 0.03 0.03 70 1013.4
20260508133936 53 283 0.9 2.6 0.00 0.03 0.03 71 1013.5
20260508133434 53 299 2.6 6.1 0.00 0.03 0.03 71 1013.6
20260508132931 54 268 3.5 3.5 0.00 0.03 0.03 71 1013.5
20260508132429 54 322 0.9 1.7 0.00 0.03 0.03 71 1013.5
20260508131925 54 288 2.6 2.6 0.00 0.03 0.03 71 1013.4
20260508131420 53 333 2.6 7.0 0.00 0.03 0.03 70 1013.3
20260508130918 54 166 1.7 5.2 0.00 0.03 0.03 70 1013.3
20260508130415 53 180 0.9 2.6 0.00 0.03 0.03 71 1013.6
20260508125910 52 279 4.3 7.8 0.00 0.03 0.03 71 1013.3
20260508125407 53 232 2.6 5.2 0.00 0.03 0.03 70 1013.3
20260508124905 52 296 0.9 2.6 0.00 0.03 0.03 71 1013.4
20260508124402 52 299 3.5 3.5 0.00 0.03 0.03 71 1013.6
20260508123900 52 178 1.7 2.6 0.00 0.03 0.03 72 1013.3
20260508123358 52 295 0.9 1.7 0.00 0.03 0.03 73 1013.3
20260508122854 52 288 4.3 5.2 0.00 0.03 0.03 71 1013.4
20260508122351 51 287 0.9 3.5 0.00 0.03 0.03 72 1013.4
20260508121848 51 280 0.9 1.7 0.00 0.03 0.03 73 1013.2
20260508121346 51 205 0.9 3.5 0.00 0.03 0.03 73 1013.3
20260508120843 51 239 1.7 3.5 0.00 0.03 0.03 73 1013.3
20260508120342 51 215 2.6 2.6 0.00 0.03 0.03 73 1013.5
20260508115839 50 205 1.7 5.2 0.00 0.03 0.03 73 1013.5
20260508115336 50 312 0.0 1.7 0.00 0.03 0.03 74 1013.1
20260508114832 49 317 1.7 2.6 0.00 0.03 0.03 75 1013.3
20260508114329 49 300 0.9 3.5 0.00 0.03 0.03 75 1013.0
20260508113826 49 205 0.9 1.7 0.00 0.03 0.03 75 1012.9
20260508113324 49 203 2.6 3.5 0.00 0.03 0.03 74 1013.0
20260508112820 49 282 1.7 2.6 0.00 0.03 0.03 75 1012.7
20260508112318 49 191 1.7 3.5 0.00 0.03 0.03 75 1012.9
20260508111814 48 286 0.9 5.2 0.00 0.03 0.03 75 1012.5
20260508111311 48 220 0.9 2.6 0.00 0.03 0.03 76 1012.6
20260508110808 48 151 0.9 1.7 0.00 0.03 0.03 77 1012.4
20260508110305 47 263 1.7 2.6 0.00 0.03 0.03 77 1012.4
20260508105805 47 280 1.7 2.6 0.00 0.03 0.03 78 1012.5
20260508105305 47 227 0.9 1.7 0.00 0.03 0.03 80 1012.5
20260508104759 46 266 0.9 1.7 0.00 0.03 0.03 81 1012.7
20260508104256 46 243 0.9 0.9 0.00 0.03 0.03 83 1012.4
20260508103753 45 190 0.0 1.7 0.00 0.03 0.03 85 1012.4
20260508103250 44 233 0.9 2.6 0.00 0.03 0.03 90 1012.5
20260508102747 43 203 0.9 0.9 0.00 0.03 0.03 94 1012.4
20260508102245 43 161 0.0 0.9 0.00 0.03 0.03 95 1012.5
20260508101742 43 157 0.0 0.0 0.00 0.03 0.03 95 1012.5
20260508101240 43 150 0.0 0.0 0.00 0.03 0.03 95 1012.6
20260508100738 43 197 0.0 0.0 0.00 0.03 0.03 95 1012.4
20260508100235 43 220 0.0 0.0 0.00 0.03 0.03 94 1012.5
20260508095731 43 226 0.0 0.0 0.00 0.03 0.03 94 1012.5
20260508095229 43 240 0.0 0.0 0.00 0.03 0.03 94 1012.6
20260508094725 43 251 0.0 0.0 0.00 0.03 0.03 93 1012.6
20260508094222 43 251 0.0 0.0 0.00 0.03 0.03 93 1012.6
20260508093720 43 278 0.0 0.0 0.00 0.03 0.03 93 1012.7
20260508093217 44 278 0.0 0.0 0.00 0.03 0.03 92 1012.6
20260508092714 44 278 0.0 0.0 0.00 0.03 0.03 92 1012.4
20260508092212 44 256 0.0 0.0 0.00 0.03 0.03 92 1012.7
20260508091709 44 278 0.0 0.0 0.00 0.03 0.03 91 1012.7
20260508091207 44 278 0.0 0.0 0.00 0.03 0.03 90 1012.5
20260508090704 45 278 0.0 0.0 0.00 0.03 0.03 90 1012.7
20260508090202 45 212 0.0 0.0 0.00 0.03 0.03 90 1012.6
20260508085657 45 222 0.0 0.0 0.00 0.03 0.03 89 1012.5
20260508085155 45 222 0.0 0.0 0.00 0.03 0.03 89 1012.5
20260508084651 46 222 0.0 0.0 0.00 0.03 0.03 89 1012.4
20260508084149 46 144 0.0 0.0 0.00 0.03 0.03 88 1012.6
20260508083646 46 180 0.0 0.9 0.00 0.03 0.03 88 1012.6
20260508083144 46 193 0.0 0.0 0.00 0.03 0.03 88 1012.6
20260508082644 46 174 0.0 0.0 0.00 0.03 0.03 88 1012.7
20260508082141 46 197 0.0 0.0 0.00 0.03 0.03 88 1012.8
20260508081639 46 177 0.0 0.9 0.00 0.03 0.03 88 1012.8
20260508081135 46 146 0.0 0.9 0.00 0.03 0.03 88 1012.6
20260508080633 46 232 0.0 0.9 0.00 0.03 0.03 88 1012.8
20260508080131 46 165 0.0 0.9 0.00 0.03 0.03 89 1012.9
20260508075627 46 116 0.0 0.0 0.00 0.03 0.03 88 1012.9
20260508075124 46 162 0.0 0.0 0.00 0.03 0.03 88 1012.7
20260508074622 46 148 0.0 0.0 0.00 0.03 0.03 87 1012.7
20260508074118 46 147 0.0 0.0 0.00 0.03 0.03 87 1013.1
20260508073616 47 122 0.0 0.9 0.00 0.03 0.03 86 1012.8
20260508073114 47 129 0.0 0.0 0.00 0.03 0.03 86 1012.9
20260508072608 47 211 0.9 1.7 0.00 0.03 0.03 86 1013.1
20260508072106 47 215 0.0 0.0 0.00 0.03 0.03 85 1013.0
20260508071604 47 184 1.7 2.6 0.00 0.03 0.03 85 1013.0
20260508071102 47 309 0.0 1.7 0.00 0.03 0.03 84 1013.2
20260508070559 48 193 0.0 1.7 0.00 0.03 0.03 84 1013.2
20260508070057 47 165 1.7 1.7 0.00 0.03 0.03 84 1013.0
20260508065554 47 189 0.0 0.0 0.00 0.03 0.03 83 1013.1
20260508065052 47 143 1.7 2.6 0.00 0.03 0.03 83 1012.9
20260508064550 48 153 0.0 0.0 0.00 0.03 0.03 82 1013.1
20260508064048 48 266 1.7 2.6 0.00 0.03 0.03 83 1013.2
20260508063544 47 205 1.7 2.6 0.00 0.03 0.03 84 1013.2
20260508063043 47 279 0.9 0.9 0.00 0.03 0.03 87 1013.3
20260508062540 47 197 0.0 0.0 0.00 0.03 0.03 87 1013.0
20260508062036 47 255 0.0 0.9 0.00 0.03 0.03 87 1013.2
20260508061534 47 241 0.9 1.7 0.00 0.03 0.03 89 1013.2
20260508061031 47 287 0.9 1.7 0.00 0.03 0.03 90 1013.0
20260508060528 47 141 0.9 1.7 0.00 0.03 0.03 90 1013.5
20260508060025 46 147 0.0 1.7 0.00 0.03 0.03 91 1013.4
20260508055521 47 201 0.9 1.7 0.00 0.03 0.03 90 1013.5
20260508055018 47 225 0.9 2.6 0.00 0.03 0.03 91 1013.6
20260508054514 46 157 0.9 3.5 0.00 0.03 0.03 91 1013.6
20260508054012 46 223 0.9 1.7 0.00 0.03 0.03 91 1013.7
20260508053508 46 210 0.9 1.7 0.00 0.03 0.03 91 1013.9
20260508053007 47 250 0.0 0.9 0.00 0.03 0.03 91 1013.7
20260508052503 47 258 0.0 0.0 0.00 0.03 0.03 90 1013.8
20260508052000 47 180 0.0 0.0 0.00 0.03 0.03 90 1013.8
20260508051455 47 257 0.0 0.9 0.00 0.03 0.03 90 1013.8
20260508050951 47 148 0.0 0.0 0.00 0.03 0.03 89 1013.9
20260508050448 47 174 0.9 1.7 0.00 0.03 0.03 88 1013.8
20260508045945 47 200 1.7 1.7 0.05 0.03 0.03 88 1013.9
20260508045442 48 217 0.0 0.9 0.05 0.03 0.03 87 1014.0
20260508044939 48 190 0.9 2.6 0.00 0.02 0.02 87 1014.0
20260508044436 48 296 2.6 5.2 0.00 0.02 0.02 86 1014.6
20260508043931 48 293 5.2 7.8 0.00 0.02 0.02 85 1014.6
20260508043429 48 308 0.0 6.1 0.07 0.02 0.02 83 1014.6
20260508042925 49 226 0.9 7.0 0.12 0.02 0.02 81 1014.6
20260508042424 49 152 0.9 2.6 0.05 0.01 0.01 79 1014.5
20260508041920 49 194 0.9 3.5 0.00 0.00 0.00 76 1014.3
20260508041417 49 269 1.7 2.6 0.00 0.00 0.00 77 1014.2
20260508040913 48 245 0.0 9.6 0.00 0.00 0.00 77 1014.2
20260508040411 48 195 0.9 0.9 0.00 0.00 0.00 83 1014.0
20260508035909 48 133 0.0 0.0 0.07 0.01 0.01 82 1013.7
20260508035405 49 107 0.0 0.0 0.07 0.01 0.01 80 1013.9
20260508034902 49 157 0.0 0.0 0.00 0.00 0.00 79 1014.2
20260508034359 49 128 0.9 0.9 0.00 0.00 0.00 77 1013.8
20260508033856 48 276 0.0 0.0 0.00 0.00 0.00 78 1014.0
20260508033354 48 89 0.0 0.0 0.00 0.00 0.00 79 1013.6
20260508032852 48 89 0.0 0.0 0.00 0.00 0.00 78 1013.7
20260508032349 48 88 0.0 0.0 0.00 0.00 0.00 79 1013.5
20260508031845 48 88 0.0 0.0 0.00 0.00 0.00 79 1013.7
20260508031342 48 113 0.0 0.0 0.00 0.00 0.00 80 1013.9
20260508030838 48 114 0.0 0.0 0.00 0.00 0.00 81 1013.8
20260508030336 48 100 0.0 0.0 0.00 0.00 0.00 80 1013.9
20260508025832 48 100 0.0 0.0 0.00 0.00 0.00 79 1013.7
20260508025329 48 100 0.0 0.0 0.00 0.00 0.00 80 1013.9
20260508024826 48 91 0.0 0.0 0.00 0.00 0.00 79 1013.9
20260508024323 48 91 0.0 0.0 0.00 0.00 0.00 77 1013.9
20260508023820 48 87 0.0 0.0 0.00 0.00 0.00 78 1013.8
20260508023316 48 123 0.0 0.0 0.00 0.00 0.00 77 1014.0
20260508022813 49 16 0.0 0.0 0.00 0.00 0.00 75 1013.9
20260508022309 48 15 0.0 0.0 0.00 0.00 0.00 74 1013.9
20260508021806 48 330 0.0 0.9 0.00 0.00 0.00 74 1014.0
20260508021302 49 92 0.0 0.0 0.00 0.00 0.00 73 1014.2
20260508020758 49 93 0.9 1.7 0.00 0.00 0.00 73 1014.0
20260508020256 49 133 0.0 0.9 0.00 0.00 0.00 72 1014.0
20260508015753 50 226 0.9 0.9 0.00 0.00 0.00 69 1014.0
20260508015250 50 199 0.0 0.9 0.00 0.00 0.00 67 1013.9
20260508014747 50 254 0.9 0.9 0.00 0.00 0.00 70 1014.1
20260508014244 50 85 0.0 0.0 0.00 0.00 0.00 70 1013.8
20260508013739 51 124 0.0 0.0 0.00 0.00 0.00 67 1013.8
20260508013236 51 142 0.9 0.9 0.00 0.00 0.00 65 1014.0
20260508012734 51 185 0.9 0.9 0.00 0.00 0.00 63 1013.8
20260508012230 52 271 0.0 0.0 0.00 0.00 0.00 63 1013.8
20260508011729 51 273 0.9 0.9 0.00 0.00 0.00 62 1013.8
20260508011226 52 203 0.0 0.9 0.00 0.00 0.00 62 1013.7
20260508010722 52 286 0.0 0.9 0.00 0.00 0.00 61 1013.8
20260508010220 52 226 0.9 2.6 0.00 0.00 0.00 59 1013.7
20260508005717 53 314 0.0 3.5 0.00 0.00 0.00 57 1013.8
20260508005214 53 284 1.7 3.5 0.00 0.00 0.00 55 1013.8
20260508004710 53 292 2.6 2.6 0.00 0.00 0.00 54 1013.8
20260508004206 53 284 2.6 6.1 0.00 0.00 0.00 55 1013.7
20260508003703 53 303 0.9 3.5 0.00 0.00 0.00 55 1014.0
20260508003200 53 278 1.7 5.2 0.00 0.00 0.00 52 1013.9
20260508002656 53 280 2.6 7.0 0.00 0.00 0.00 51 1014.0
20260508002154 54 300 2.6 3.5 0.00 0.00 0.00 51 1013.9
20260508001649 54 284 0.9 1.7 0.00 0.00 0.00 50 1013.8
20260508001145 54 288 3.5 7.8 0.00 0.00 0.00 48 1013.9
20260508000642 55 312 2.6 7.8 0.00 0.00 0.00 48 1013.7
20260508000139 55 38 3.5 6.1 0.00 0.00 0.00 47 1013.7
20260507235636 55 320 3.5 5.2 0.00 0.00 0.00 47 1013.8
20260507235133 55 273 2.6 2.6 0.00 0.00 0.00 47 1013.7
20260507234630 55 302 6.1 7.0 0.00 0.00 0.00 46 1013.6
20260507234126 55 330 3.5 3.5 0.00 0.00 0.00 45 1013.3
20260507233623 55 289 7.8 9.6 0.00 0.00 0.00 44 1013.2
20260507233122 56 298 7.0 9.6 0.00 0.00 0.00 43 1013.3
20260507232618 56 299 4.3 6.1 0.00 0.00 0.00 42 1013.4
20260507232115 56 234 0.9 8.7 0.00 0.00 0.00 40 1013.3
20260507231611 57 239 4.3 9.6 0.00 0.00 0.00 39 1013.3
20260507231109 57 312 0.9 6.1 0.00 0.00 0.00 40 1013.2
20260507230605 57 290 2.6 5.2 0.00 0.00 0.00 39 1013.4
20260507225556 57 173 2.6 7.0 0.00 0.00 0.00 38 1013.1
20260507225053 58 292 3.5 3.5 0.00 0.00 0.00 38 1013.1
20260507224549 58 295 4.3 6.1 0.00 0.00 0.00 38 1013.2
20260507224046 58 282 1.7 5.2 0.00 0.00 0.00 37 1013.1
20260507223542 58 217 1.7 2.6 0.00 0.00 0.00 37 1013.2
20260507223039 57 292 1.7 6.1 0.00 0.00 0.00 39 1013.1
20260507222536 57 212 0.9 5.2 0.00 0.00 0.00 39 1013.0
20260507222032 57 306 2.6 9.6 0.00 0.00 0.00 38 1013.3
20260507221529 58 288 3.5 5.2 0.00 0.00 0.00 38 1013.2
20260507221026 59 277 2.6 3.5 0.00 0.00 0.00 36 1013.4
20260507220523 58 256 7.0 7.8 0.00 0.00 0.00 37 1013.2
20260507220021 58 302 3.5 6.1 0.00 0.00 0.00 36 1013.3
20260507215516 57 293 3.5 7.8 0.00 0.00 0.00 37 1013.1
20260507215015 58 297 4.3 9.6 0.00 0.00 0.00 36 1013.1
20260507214511 59 279 9.6 13.0 0.00 0.00 0.00 35 1013.3
20260507214007 58 285 2.6 7.0 0.00 0.00 0.00 37 1013.0
20260507213504 58 2 2.6 7.8 0.00 0.00 0.00 37 1013.2
20260507213001 57 337 2.6 5.2 0.00 0.00 0.00 37 1013.1
20260507212456 57 299 6.1 7.8 0.00 0.00 0.00 37 1013.1
20260507211954 57 262 4.3 5.2 0.00 0.00 0.00 37 1013.3
20260507211450 57 303 3.5 6.1 0.00 0.00 0.00 39 1013.1
20260507210947 58 308 3.5 5.2 0.00 0.00 0.00 37 1013.3
20260507210444 58 294 5.2 7.0 0.00 0.00 0.00 37 1013.4
20260507205940 58 333 5.2 6.1 0.00 0.00 0.00 39 1013.2
20260507205438 58 336 2.6 5.2 0.00 0.00 0.00 37 1013.2
20260507204934 59 331 4.3 6.1 0.00 0.00 0.00 36 1013.1
20260507204430 58 40 1.7 5.2 0.00 0.00 0.00 39 1013.1
20260507203928 58 260 7.0 11.3 0.00 0.00 0.00 37 1013.3
20260507203426 58 349 4.3 9.6 0.00 0.00 0.00 39 1013.1
20260507202922 59 290 4.3 6.1 0.00 0.00 0.00 39 1013.2
20260507202419 58 345 5.2 7.0 0.00 0.00 0.00 37 1013.3
20260507201914 57 351 6.1 7.8 0.00 0.00 0.00 39 1013.4
20260507201410 57 313 4.3 7.8 0.00 0.00 0.00 40 1013.4
20260507200907 58 303 4.3 7.8 0.00 0.00 0.00 38 1013.4
20260507200402 58 313 6.1 14.8 0.00 0.00 0.00 37 1013.5
20260507195858 57 338 2.6 5.2 0.00 0.00 0.00 39 1013.4
20260507195356 58 284 4.3 8.7 0.00 0.00 0.00 37 1013.6
20260507194853 57 296 5.2 7.0 0.00 0.00 0.00 40 1013.4
20260507194349 58 47 3.5 7.0 0.00 0.00 0.00 40 1013.4
20260507193846 56 305 4.3 6.1 0.00 0.00 0.00 40 1013.6
20260507193343 57 283 5.2 7.8 0.00 0.00 0.00 38 1013.8
20260507192839 58 300 4.3 12.2 0.00 0.00 0.00 38 1013.4
20260507192336 59 298 7.8 11.3 0.00 0.00 0.00 38 1013.6
20260507191832 58 336 3.5 7.8 0.00 0.00 0.00 38 1013.4
20260507191328 58 302 3.5 7.0 0.00 0.00 0.00 39 1013.6
20260507190825 58 310 5.2 7.8 0.00 0.00 0.00 40 1013.8
20260507190324 57 272 5.2 7.0 0.00 0.00 0.00 38 1013.5
20260507185822 58 286 2.6 8.7 0.00 0.00 0.00 38 1013.9
20260507185319 59 305 7.8 11.3 0.00 0.00 0.00 38 1013.8
20260507184816 58 318 0.9 3.5 0.00 0.00 0.00 40 1013.7
20260507184314 56 259 4.3 6.1 0.00 0.00 0.00 40 1013.9
20260507183810 56 266 5.2 8.7 0.00 0.00 0.00 39 1014.1
20260507183308 57 313 2.6 8.7 0.00 0.00 0.00 40 1014.0
20260507182805 57 277 3.5 7.0 0.00 0.00 0.00 39 1013.9
20260507182300 56 289 5.2 8.7 0.00 0.00 0.00 38 1013.8
20260507181757 57 292 7.8 12.2 0.00 0.00 0.00 40 1014.1
20260507181253 56 341 4.3 9.6 0.00 0.00 0.00 39 1013.9
20260507180749 56 275 6.1 9.6 0.00 0.00 0.00 40 1014.1
20260507180247 55 290 6.1 18.2 0.00 0.00 0.00 41 1014.1
20260507175742 56 289 7.0 13.0 0.00 0.00 0.00 40 1014.1